When you browse on this site, cookies collect data to enhance your experience and personalize the content and advertising you see.
Visit our Privacy Policy to learn more. By continuing to use the site, you agree to this use of cookies and data.
  • In Hungary
  • List of Countries
  • For 7 days
  • Water Temperature
  • Satellite Maps
  • Weather Map
  • News
  • Weather Widgets
  • user-avatar
    Login

    Hourly Weather Luciny

    Today, 16 January, Wednesday

    Time Temperature Precipitation Wind Pressure Humidity
    00:00 +2°C° 0.1 mm 9 mps 745 mmHg 87%
    01:00 +3°C° 0 mm 7 mps 745 mmHg 86%
    02:00 +3°C° 0.4 mm 7 mps 746 mmHg 88%
    03:00 +3°C° 0.4 mm 6 mps 746 mmHg 90%
    04:00 +3°C° 0.4 mm 6 mps 746 mmHg 91%
    05:00 +3°C° 0.5 mm 6 mps 746 mmHg 91%
    06:00 +3°C° 0.5 mm 6 mps 747 mmHg 91%
    07:00 +3°C° 0 mm 6 mps 747 mmHg 92%
    08:00 +3°C° 0.2 mm 6 mps 748 mmHg 89%
    09:00 +4°C° 0.2 mm 7 mps 748 mmHg 87%
    10:00 +4°C° 0.2 mm 7 mps 748 mmHg 84%
    11:00 +4°C° 0 mm 7 mps 748 mmHg 83%
    12:00 +4°C° 0 mm 7 mps 748 mmHg 81%
    13:00 +4°C° 0 mm 7 mps 748 mmHg 80%
    14:00 +4°C° 0 mm 7 mps 748 mmHg 81%
    15:00 +4°C° 0 mm 6 mps 748 mmHg 82%
    16:00 +4°C° 0 mm 6 mps 748 mmHg 82%
    17:00 +3°C° 0 mm 6 mps 748 mmHg 83%
    18:00 +3°C° 0 mm 5 mps 747 mmHg 83%
    19:00 +3°C° 0 mm 5 mps 747 mmHg 84%
    20:00 +2°C° 0 mm 5 mps 747 mmHg 83%
    21:00 +2°C° 0 mm 5 mps 746 mmHg 83%
    22:00 +1°C° 0 mm 5 mps 746 mmHg 83%
    23:00 +1°C° 0 mm 5 mps 745 mmHg 82%

    Tomorrow, 17 January, Thursday

    Time Temperature Precipitation Wind Pressure Humidity
    00:00 +1°C° 0 mm 5 mps 745 mmHg 80%
    01:00 +1°C° 0 mm 5 mps 744 mmHg 79%
    02:00 +1°C° 0 mm 6 mps 744 mmHg 77%
    03:00 +1°C° 0 mm 6 mps 743 mmHg 75%
    04:00 +1°C° 0 mm 6 mps 743 mmHg 74%
    05:00 +1°C° 0 mm 6 mps 742 mmHg 72%
    06:00 0°C° 0 mm 7 mps 742 mmHg 71%
    07:00 0°C° 0 mm 7 mps 742 mmHg 70%
    08:00 +1°C° 0 mm 8 mps 742 mmHg 73%
    09:00 +1°C° 0 mm 8 mps 743 mmHg 75%
    10:00 +2°C° 0 mm 8 mps 743 mmHg 77%
    11:00 +2°C° 0 mm 8 mps 743 mmHg 73%
    12:00 +4°C° 0 mm 8 mps 743 mmHg 69%
    13:00 +5°C° 0 mm 8 mps 743 mmHg 66%
    14:00 +4°C° 0 mm 7 mps 743 mmHg 68%
    15:00 +4°C° 0 mm 6 mps 743 mmHg 70%
    16:00 +3°C° 0 mm 5 mps 742 mmHg 72%
    17:00 +3°C° 0.8 mm 5 mps 742 mmHg 76%
    18:00 +3°C° 0.8 mm 5 mps 742 mmHg 79%
    19:00 +2°C° 0.8 mm 5 mps 743 mmHg 82%
    20:00 +2°C° 0.7 mm 6 mps 743 mmHg 78%
    21:00 0°C° 0.7 mm 7 mps 744 mmHg 73%
    22:00 0°C° 0.7 mm 7 mps 744 mmHg 68%
    23:00 -1°C° 0 mm 8 mps 745 mmHg 69%

    Day after tomorrow, 18 January, Friday

    Time Temperature Precipitation Wind Pressure Humidity
    00:00 -2°C° 0 mm 8 mps 745 mmHg 69%
    01:00 -2°C° 0 mm 8 mps 746 mmHg 69%
    02:00 -2°C° 0.1 mm 8 mps 746 mmHg 69%
    03:00 -4°C° 0.1 mm 8 mps 746 mmHg 69%
    04:00 -4°C° 0.1 mm 9 mps 747 mmHg 69%
    05:00 -4°C° 0 mm 9 mps 748 mmHg 70%
    06:00 -4°C° 0 mm 9 mps 749 mmHg 72%
    07:00 -4°C° 0 mm 9 mps 750 mmHg 73%
    08:00 -4°C° 0 mm 8 mps 751 mmHg 74%
    09:00 -2°C° 0 mm 7 mps 752 mmHg 75%
    10:00 -2°C° 0 mm 6 mps 753 mmHg 76%
    11:00 -1°C° 0 mm 6 mps 754 mmHg 73%
    12:00 -1°C° 0 mm 6 mps 755 mmHg 69%
    13:00 0°C° 0 mm 5 mps 755 mmHg 66%
    14:00 -1°C° 0 mm 5 mps 756 mmHg 69%
    15:00 -1°C° 0 mm 4 mps 756 mmHg 72%
    16:00 -1°C° 0 mm 3 mps 757 mmHg 75%
    17:00 -1°C° 0 mm 3 mps 757 mmHg 78%
    18:00 -2°C° 0 mm 3 mps 757 mmHg 80%
    19:00 -2°C° 0 mm 3 mps 757 mmHg 83%
    20:00 -2°C° 0 mm 3 mps 757 mmHg 82%
    21:00 -3°C° 0 mm 4 mps 757 mmHg 80%
    22:00 -3°C° 0 mm 4 mps 758 mmHg 79%
    23:00 -3°C° 0 mm 4 mps 758 mmHg 78%

    19 January, Saturday

    Time Temperature Precipitation Wind Pressure Humidity
    00:00 -3°C° 0 mm 4 mps 758 mmHg 77%
    01:00 -3°C° 0 mm 4 mps 758 mmHg 76%
    02:00 -2°C° 0 mm 3 mps 757 mmHg 77%
    03:00 -2°C° 0 mm 3 mps 757 mmHg 78%
    04:00 -2°C° 0 mm 3 mps 757 mmHg 79%
    05:00 -2°C° 0 mm 3 mps 757 mmHg 80%
    06:00 -2°C° 0 mm 3 mps 757 mmHg 82%
    07:00 -2°C° 0 mm 2 mps 757 mmHg 83%
    08:00 -2°C° 0 mm 2 mps 757 mmHg 81%
    09:00 -1°C° 0 mm 2 mps 757 mmHg 79%
    10:00 -1°C° 0 mm 2 mps 757 mmHg 77%
    11:00 +1°C° 0 mm 2 mps 757 mmHg 73%
    12:00 +1°C° 0 mm 2 mps 757 mmHg 70%
    13:00 +2°C° 0 mm 2 mps 757 mmHg 67%
    14:00 +1°C° 0 mm 2 mps 756 mmHg 70%
    15:00 +2°C° 0 mm 1 mps 756 mmHg 72%
    16:00 +1°C° 0 mm 1 mps 756 mmHg 75%
    17:00 +1°C° 0 mm 1 mps 756 mmHg 75%
    18:00 0°C° 0 mm 1 mps 756 mmHg 75%
    19:00 0°C° 0 mm 1 mps 756 mmHg 76%
    20:00 0°C° 0 mm 1 mps 756 mmHg 74%
    21:00 0°C° 0 mm 1 mps 756 mmHg 72%
    22:00 0°C° 0 mm 1 mps 756 mmHg 70%
    23:00 0°C° 0 mm 1 mps 756 mmHg 69%

    20 January, Sunday

    Time Temperature Precipitation Wind Pressure Humidity
    00:00 -1°C° 0 mm 1 mps 755 mmHg 67%
    01:00 -1°C° 0 mm 1 mps 755 mmHg 66%
    02:00 -1°C° 0 mm 1 mps 755 mmHg 66%
    03:00 -1°C° 0 mm 1 mps 755 mmHg 66%
    04:00 -1°C° 0 mm 1 mps 754 mmHg 66%
    05:00 -1°C° 0 mm 1 mps 754 mmHg 67%
    06:00 -1°C° 0 mm 1 mps 754 mmHg 68%
    07:00 -1°C° 0 mm 1 mps 755 mmHg 69%
    08:00 -1°C° 0 mm 1 mps 755 mmHg 67%
    09:00 0°C° 0 mm 1 mps 755 mmHg 65%
    10:00 0°C° 0 mm 1 mps 755 mmHg 63%
    11:00 +1°C° 0 mm 1 mps 755 mmHg 61%
    12:00 +1°C° 0 mm 1 mps 755 mmHg 58%
    13:00 +1°C° 0 mm 0 mps 755 mmHg 55%
    14:00 +1°C° 0 mm 1 mps 755 mmHg 58%
    15:00 +1°C° 0 mm 1 mps 755 mmHg 62%
    16:00 0°C° 0 mm 1 mps 755 mmHg 65%
    17:00 0°C° 0 mm 1 mps 755 mmHg 67%
    18:00 -1°C° 0 mm 1 mps 755 mmHg 70%
    19:00 -1°C° 0 mm 1 mps 756 mmHg 72%
    20:00 -3°C° 0 mm 2 mps 756 mmHg 76%
    21:00 -3°C° 0 mm 2 mps 757 mmHg 80%
    22:00 -3°C° 0 mm 2 mps 757 mmHg 83%
    23:00 -3°C° 0 mm 2 mps 757 mmHg 85%

    21 January, Monday

    Time Temperature Precipitation Wind Pressure Humidity
    00:00 -3°C° 0 mm 2 mps 758 mmHg 87%
    01:00 -3°C° 0 mm 2 mps 758 mmHg 89%
    02:00 -4°C° 0 mm 2 mps 758 mmHg 85%
    03:00 -4°C° 0 mm 2 mps 759 mmHg 81%
    04:00 -4°C° 0 mm 2 mps 759 mmHg 76%
    05:00 -4°C° 0 mm 2 mps 760 mmHg 75%
    06:00 -4°C° 0 mm 2 mps 760 mmHg 74%
    07:00 -5°C° 0 mm 2 mps 761 mmHg 72%
    08:00 -4°C° 0 mm 2 mps 761 mmHg 70%
    09:00 -3°C° 0 mm 2 mps 762 mmHg 68%
    10:00 -3°C° 0 mm 2 mps 762 mmHg 66%
    11:00 -3°C° 0 mm 2 mps 762 mmHg 62%
    12:00 -2°C° 0 mm 2 mps 762 mmHg 59%
    13:00 -2°C° 0 mm 2 mps 763 mmHg 56%
    14:00 -2°C° 0 mm 2 mps 763 mmHg 59%
    15:00 -3°C° 0 mm 2 mps 763 mmHg 61%
    16:00 -1°C° 0 mm 1 mps 763 mmHg 64%
    17:00 -1°C° 0 mm 1 mps 763 mmHg 66%
    18:00 -2°C° 0 mm 1 mps 763 mmHg 67%
    19:00 -3°C° 0 mm 0 mps 764 mmHg 69%
    20:00 -3°C° 0 mm 0 mps 764 mmHg 70%
    21:00 -3°C° 0 mm 0 mps 764 mmHg 70%
    22:00 -3°C° 0 mm 0 mps 764 mmHg 71%
    23:00 -3°C° 0 mm 0 mps 764 mmHg 72%
    Show more